Location: Newark
(51.2625°N, 13.3939°E)
Time: 04:38:43
(UTC+00:00)

deb Explorer IX - Pass Details

Date: 25 November 2019
Orbit: 545 x 1105 km, 38.8° (Epoch: 08 December)

Event Time Altitude Azimuth Distance (km) Brightness Sun altitude
Rises 01:47:03 0° 260° (W) 3,724 - -44.4°
Reaches altitude 10° 01:50:39 10° 244° (WSW) 2,674 - -43.9°
Maximum altitude 01:54:53 19° 202° (SSW) 1,989 - -43.3°
Drops below altitude 10° 01:58:45 10° 159° (SSE) 2,403 - -42.8°
Sets 02:01:46 0° 141° (SE) 3,219 - -42.3°
